Location: Gallinara
(44.0333°N, 8.2333°E)
Time: 15:48:17
(UTC+00:00)

ASTEX 1 - Pass Details

Date: 25 September 2020
Orbit: 721 x 742 km, 92.7° (Epoch: 24 October)

Event Time Altitude Azimuth Distance (km) Brightness Sun altitude
Rises 02:45:15 0° 2° (N) 3,192 7.1 -27.3°
Reaches altitude 10° 02:47:35 10° 359° (N) 2,265 6.2 -26.9°
Enters shadow 02:51:25 49° 333° (NNW) 958 3.9 -26.3°
